| time (UTC) | temp F | wind direction | speed MPH | gust MPH | rain 1hr in | rain 24hr in | rain mn in | humidity % | barometer mb |
| 20260505051405 | 59 | 3 | 3.0 | 8.0 | 0.00 | 0.01 | 0.00 | 75 | 1030.4 |
| 20260505050405 | 59 | 340 | 4.0 | 8.0 | 0.00 | 0.01 | 0.00 | 75 | 1030.4 |
| 20260505041406 | 61 | 349 | 5.0 | 12.0 | 0.00 | 0.01 | 0.00 | 72 | 1030.5 |
| 20260505040905 | 61 | 347 | 4.0 | 9.0 | 0.00 | 0.01 | 0.00 | 72 | 1030.4 |
| 20260505040406 | 61 | 348 | 4.0 | 9.0 | 0.00 | 0.01 | 0.00 | 72 | 1030.4 |
| 20260505035906 | 61 | 333 | 4.0 | 10.0 | 0.00 | 0.01 | 0.00 | 72 | 1030.5 |
| 20260505035405 | 61 | 338 | 3.0 | 10.0 | 0.00 | 0.01 | 0.00 | 71 | 1030.4 |
| 20260505034905 | 61 | 306 | 4.0 | 9.0 | 0.00 | 0.01 | 0.00 | 71 | 1030.5 |
| 20260505034405 | 61 | 342 | 2.0 | 6.0 | 0.00 | 0.01 | 0.00 | 71 | 1030.5 |
| 20260505033905 | 61 | 336 | 2.0 | 8.0 | 0.00 | 0.01 | 0.00 | 72 | 1030.5 |
| 20260505033406 | 61 | 237 | 2.0 | 7.0 | 0.00 | 0.01 | 0.00 | 72 | 1030.4 |
| 20260505032905 | 61 | 298 | 4.0 | 10.0 | 0.00 | 0.01 | 0.00 | 71 | 1030.5 |
| 20260505032406 | 61 | 348 | 5.0 | 9.0 | 0.00 | 0.01 | 0.00 | 71 | 1030.5 |
| 20260505031907 | 61 | 320 | 5.0 | 12.0 | 0.00 | 0.01 | 0.00 | 72 | 1030.6 |
| 20260505031405 | 61 | 348 | 5.0 | 10.0 | 0.00 | 0.01 | 0.00 | 71 | 1030.6 |
| 20260505030906 | 61 | 328 | 5.0 | 9.0 | 0.00 | 0.01 | 0.00 | 71 | 1030.6 |
| 20260505030407 | 62 | 326 | 3.0 | 8.0 | 0.00 | 0.01 | 0.00 | 71 | 1030.6 |
| 20260505025905 | 62 | 264 | 2.0 | 8.0 | 0.00 | 0.01 | 0.00 | 70 | 1030.7 |
| 20260505025405 | 62 | 349 | 3.0 | 8.0 | 0.00 | 0.01 | 0.00 | 71 | 1030.8 |
| 20260505024906 | 61 | 313 | 2.0 | 6.0 | 0.00 | 0.01 | 0.00 | 72 | 1030.8 |
| 20260505023406 | 61 | 348 | 5.0 | 12.0 | 0.00 | 0.01 | 0.00 | 71 | 1030.9 |
| 20260505022905 | 61 | 343 | 5.0 | 10.0 | 0.00 | 0.01 | 0.00 | 71 | 1031.0 |
| 20260505022406 | 62 | 334 | 6.0 | 10.0 | 0.00 | 0.01 | 0.00 | 72 | 1031.0 |
| 20260505021905 | 62 | 343 | 5.0 | 12.0 | 0.00 | 0.01 | 0.00 | 73 | 1031.0 |
| 20260505021406 | 62 | 343 | 3.0 | 9.0 | 0.00 | 0.01 | 0.00 | 72 | 1031.0 |
| 20260505020906 | 62 | 342 | 7.0 | 13.0 | 0.00 | 0.01 | 0.00 | 71 | 1031.1 |
| 20260505020406 | 62 | 355 | 5.0 | 10.0 | 0.00 | 0.01 | 0.00 | 71 | 1031.1 |
| 20260505015906 | 62 | 353 | 6.0 | 9.0 | 0.00 | 0.01 | 0.00 | 71 | 1031.1 |
| 20260505013906 | 60 | 331 | 4.0 | 9.0 | 0.00 | 0.01 | 0.00 | 76 | 1031.3 |
| 20260505013405 | 60 | 347 | 4.0 | 10.0 | 0.00 | 0.01 | 0.00 | 74 | 1031.4 |
| 20260505012906 | 61 | 350 | 3.0 | 9.0 | 0.00 | 0.01 | 0.00 | 74 | 1031.5 |
| 20260505011905 | 61 | 342 | 3.0 | 10.0 | 0.00 | 0.01 | 0.00 | 72 | 1031.6 |
| 20260505011407 | 62 | 354 | 3.0 | 10.0 | 0.00 | 0.01 | 0.00 | 72 | 1031.7 |
| 20260505010406 | 60 | 354 | 4.0 | 12.0 | 0.00 | 0.01 | 0.00 | 74 | 1031.8 |
| 20260505005906 | 60 | 338 | 4.0 | 10.0 | 0.00 | 0.01 | 0.00 | 74 | 1031.8 |
| 20260505005406 | 60 | 355 | 3.0 | 8.0 | 0.00 | 0.01 | 0.00 | 74 | 1031.9 |
| 20260505004406 | 60 | 349 | 2.0 | 12.0 | 0.00 | 0.01 | 0.00 | 75 | 1032.0 |
| 20260505003907 | 60 | 338 | 3.0 | 9.0 | 0.00 | 0.01 | 0.00 | 75 | 1032.1 |
| 20260505003405 | 60 | 346 | 2.0 | 9.0 | 0.00 | 0.01 | 0.00 | 75 | 1032.2 |
| 20260505002407 | 59 | 356 | 3.0 | 9.0 | 0.00 | 0.01 | 0.00 | 74 | 1032.4 |
| 20260505001906 | 60 | 353 | 3.0 | 6.0 | 0.00 | 0.01 | 0.00 | 75 | 1032.5 |
| 20260505001405 | 60 | 348 | 4.0 | 10.0 | 0.00 | 0.01 | 0.00 | 74 | 1032.5 |
| 20260505000906 | 60 | 344 | 2.0 | 8.0 | 0.00 | 0.01 | 0.00 | 75 | 1032.5 |
| 20260505000406 | 60 | 354 | 3.0 | 9.0 | 0.00 | 0.01 | 0.00 | 75 | 1032.6 |
| 20260504235906 | 60 | 349 | 2.0 | 3.0 | 0.00 | 0.01 | 0.00 | 77 | 1032.6 |
| 20260504235406 | 60 | 323 | 2.0 | 3.0 | 0.00 | 0.01 | 0.00 | 76 | 1032.6 |
| 20260504234907 | 60 | 352 | 1.0 | 3.0 | 0.00 | 0.02 | 0.00 | 76 | 1032.7 |
| 20260504233407 | 59 | 342 | 1.0 | 2.0 | 0.00 | 0.02 | 0.00 | 76 | 1032.8 |
| 20260504232905 | 59 | 343 | 1.0 | 2.0 | 0.00 | 0.02 | 0.00 | 77 | 1032.8 |
| 20260504232405 | 59 | 357 | 1.0 | 2.0 | 0.00 | 0.02 | 0.00 | 76 | 1032.9 |
| 20260504231907 | 59 | 339 | 1.0 | 3.0 | 0.00 | 0.02 | 0.00 | 78 | 1032.9 |
| 20260504231405 | 58 | 359 | 0.0 | 2.0 | 0.00 | 0.02 | 0.00 | 79 | 1032.9 |
| 20260504230407 | 58 | 354 | 1.0 | 3.0 | 0.00 | 0.02 | 0.00 | 79 | 1032.9 |
| 20260504225905 | 58 | 346 | 1.0 | 2.0 | 0.00 | 0.02 | 0.00 | 79 | 1032.9 |
| 20260504225407 | 58 | 336 | 0.0 | 1.0 | 0.00 | 0.02 | 0.00 | 80 | 1032.9 |
| 20260504224905 | 57 | 340 | 0.0 | 1.0 | 0.00 | 0.02 | 0.00 | 81 | 1032.9 |
| 20260504224404 | 57 | 346 | 0.0 | 1.0 | 0.00 | 0.02 | 0.00 | 81 | 1032.9 |
| 20260504223905 | 57 | 338 | 1.0 | 2.0 | 0.00 | 0.02 | 0.00 | 81 | 1032.9 |
| 20260504223405 | 57 | 242 | 1.0 | 2.0 | 0.00 | 0.02 | 0.00 | 81 | 1033.0 |
| 20260504222405 | 56 | 343 | 0.0 | 2.0 | 0.00 | 0.02 | 0.00 | 81 | 1033.0 |
| 20260504221905 | 56 | 341 | 0.0 | 1.0 | 0.00 | 0.02 | 0.00 | 82 | 1033.0 |
| 20260504221405 | 56 | 211 | 0.0 | 1.0 | 0.00 | 0.02 | 0.00 | 82 | 1033.0 |
| 20260504220907 | 56 | 16 | 0.0 | 1.0 | 0.00 | 0.02 | 0.00 | 82 | 1033.0 |
| 20260504220405 | 56 | 16 | 1.0 | 2.0 | 0.00 | 0.02 | 0.00 | 82 | 1033.0 |
| 20260504215405 | 56 | 16 | 0.0 | 1.0 | 0.00 | 0.02 | 0.00 | 83 | 1033.1 |
| 20260504214907 | 55 | 16 | 0.0 | 1.0 | 0.00 | 0.02 | 0.00 | 83 | 1033.1 |
| 20260504214405 | 55 | 16 | 0.0 | 1.0 | 0.00 | 0.02 | 0.00 | 83 | 1033.2 |
| 20260504213906 | 55 | 16 | 0.0 | 0.0 | 0.00 | 0.02 | 0.00 | 84 | 1033.2 |
| 20260504213407 | 55 | 16 | 0.0 | 0.0 | 0.00 | 0.02 | 0.00 | 84 | 1033.2 |
| 20260504212905 | 55 | 16 | 0.0 | 0.0 | 0.00 | 0.02 | 0.00 | 84 | 1033.2 |
| 20260504212407 | 55 | 16 | 0.0 | 0.0 | 0.00 | 0.02 | 0.00 | 84 | 1033.2 |
| 20260504211905 | 54 | 16 | 0.0 | 0.0 | 0.00 | 0.02 | 0.00 | 83 | 1033.2 |
| 20260504211405 | 54 | 16 | 0.0 | 1.0 | 0.00 | 0.02 | 0.00 | 84 | 1033.2 |
| 20260504210905 | 54 | 16 | 0.0 | 1.0 | 0.00 | 0.02 | 0.00 | 84 | 1033.3 |
| 20260504210405 | 54 | 16 | 0.0 | 1.0 | 0.00 | 0.02 | 0.00 | 83 | 1033.2 |
| 20260504205906 | 54 | 16 | 0.0 | 1.0 | 0.00 | 0.02 | 0.00 | 83 | 1033.2 |
| 20260504205405 | 54 | 16 | 0.0 | 1.0 | 0.00 | 0.02 | 0.00 | 83 | 1033.1 |
| 20260504204407 | 54 | 16 | 0.0 | 1.0 | 0.00 | 0.02 | 0.00 | 83 | 1033.2 |
| 20260504203905 | 54 | 16 | 0.0 | 1.0 | 0.00 | 0.02 | 0.00 | 83 | 1033.2 |
| 20260504202906 | 53 | 16 | 0.0 | 1.0 | 0.00 | 0.02 | 0.00 | 83 | 1033.3 |
| 20260504202406 | 53 | 16 | 0.0 | 0.0 | 0.00 | 0.02 | 0.00 | 83 | 1033.3 |
| 20260504201906 | 53 | 16 | 0.0 | 0.0 | 0.00 | 0.02 | 0.00 | 83 | 1033.2 |
| 20260504200907 | 53 | 16 | 0.0 | 1.0 | 0.00 | 0.02 | 0.00 | 83 | 1033.1 |
| 20260504200406 | 53 | 16 | 0.0 | 1.0 | 0.00 | 0.02 | 0.00 | 83 | 1033.1 |
| 20260504195905 | 53 | 16 | 0.0 | 0.0 | 0.00 | 0.02 | 0.00 | 83 | 1033.0 |
| 20260504195405 | 53 | 16 | 0.0 | 0.0 | 0.00 | 0.02 | 0.00 | 83 | 1033.0 |
| 20260504194906 | 53 | 16 | 0.0 | 1.0 | 0.00 | 0.02 | 0.00 | 83 | 1032.9 |
| 20260504193906 | 53 | 16 | 0.0 | 1.0 | 0.00 | 0.02 | 0.00 | 84 | 1032.8 |
| 20260504192905 | 53 | 16 | 0.0 | 1.0 | 0.00 | 0.02 | 0.00 | 84 | 1032.7 |
| 20260504191906 | 52 | 16 | 0.0 | 2.0 | 0.00 | 0.02 | 0.00 | 85 | 1032.7 |
| 20260504191405 | 53 | 10 | 1.0 | 2.0 | 0.00 | 0.02 | 0.00 | 85 | 1032.7 |
| 20260504190906 | 52 | 343 | 0.0 | 1.0 | 0.00 | 0.02 | 0.00 | 85 | 1032.7 |
| 20260504190405 | 52 | 338 | 1.0 | 2.0 | 0.00 | 0.02 | 0.00 | 86 | 1032.7 |
| 20260504185905 | 52 | 336 | 0.0 | 1.0 | 0.00 | 0.02 | 0.00 | 86 | 1032.7 |
| 20260504185405 | 52 | 335 | 0.0 | 1.0 | 0.00 | 0.02 | 0.00 | 87 | 1032.6 |
| 20260504184905 | 52 | 330 | 0.0 | 1.0 | 0.00 | 0.02 | 0.00 | 87 | 1032.6 |
| 20260504184405 | 52 | 338 | 0.0 | 1.0 | 0.00 | 0.02 | 0.00 | 87 | 1032.6 |
| 20260504183906 | 52 | 337 | 0.0 | 1.0 | 0.00 | 0.02 | 0.00 | 87 | 1032.6 |
| 20260504182906 | 52 | 346 | 0.0 | 1.0 | 0.00 | 0.02 | 0.00 | 88 | 1032.7 |
| 20260504182405 | 52 | 352 | 0.0 | 1.0 | 0.00 | 0.02 | 0.00 | 88 | 1032.7 |
| 20260504181904 | 52 | 355 | 0.0 | 2.0 | 0.00 | 0.02 | 0.00 | 89 | 1032.7 |
| 20260504181405 | 52 | 343 | 0.0 | 2.0 | 0.00 | 0.02 | 0.00 | 89 | 1032.7 |
| 20260504180905 | 51 | 342 | 0.0 | 1.0 | 0.00 | 0.02 | 0.00 | 90 | 1032.7 |
| 20260504180405 | 51 | 349 | 0.0 | 3.0 | 0.00 | 0.02 | 0.00 | 90 | 1032.7 |
| 20260504175905 | 51 | 355 | 1.0 | 3.0 | 0.00 | 0.02 | 0.00 | 90 | 1032.7 |
| 20260504175405 | 51 | 352 | 0.0 | 2.0 | 0.00 | 0.02 | 0.00 | 90 | 1032.7 |
| 20260504174905 | 51 | 334 | 1.0 | 3.0 | 0.00 | 0.02 | 0.00 | 90 | 1032.8 |
| 20260504173905 | 51 | 359 | 0.0 | 2.0 | 0.00 | 0.02 | 0.00 | 91 | 1032.8 |
| 20260504173404 | 51 | 263 | 0.0 | 3.0 | 0.00 | 0.02 | 0.00 | 91 | 1032.7 |
| 20260504172905 | 50 | 300 | 0.0 | 2.0 | 0.00 | 0.02 | 0.00 | 91 | 1032.8 |
| 20260504171904 | 50 | 27 | 0.0 | 1.0 | 0.00 | 0.02 | 0.00 | 91 | 1032.8 |
| 20260504171405 | 50 | 28 | 1.0 | 2.0 | 0.00 | 0.02 | 0.00 | 91 | 1032.8 |
| 20260504170904 | 50 | 358 | 0.0 | 1.0 | 0.00 | 0.02 | 0.00 | 91 | 1032.8 |
| 20260504170405 | 50 | 13 | 0.0 | 0.0 | 0.00 | 0.02 | 0.00 | 91 | 1032.8 |
| 20260504160405 | 50 | 356 | 1.0 | 2.0 | 0.00 | 0.02 | 0.00 | 90 | 1032.8 |
| 20260504150905 | 50 | 12 | 1.0 | 2.0 | 0.00 | 0.02 | 0.00 | 90 | 1033.4 |
| 20260504150404 | 50 | 31 | 1.0 | 2.0 | 0.00 | 0.02 | 0.00 | 90 | 1033.4 |
| 20260504140905 | 49 | 359 | 0.0 | 1.0 | 0.00 | 0.02 | 0.00 | 89 | 1033.5 |
| 20260504140405 | 49 | 359 | 0.0 | 1.0 | 0.00 | 0.02 | 0.00 | 89 | 1033.4 |
| 20260504130404 | 51 | 225 | 0.0 | 1.0 | 0.00 | 0.02 | 0.00 | 88 | 1033.4 |
| 20260504110405 | 51 | 37 | 0.0 | 0.0 | 0.00 | 0.02 | 0.01 | 88 | 1033.5 |
| 20260504100406 | 53 | 37 | 0.0 | 1.0 | 0.00 | 0.02 | 0.01 | 84 | 1033.1 |
| 20260504081904 | 55 | 343 | 1.0 | 3.0 | 0.00 | 0.02 | 0.01 | 81 | 1032.7 |
| 20260504081405 | 55 | 349 | 2.0 | 5.0 | 0.00 | 0.02 | 0.01 | 81 | 1032.7 |
| 20260504080404 | 55 | 349 | 1.0 | 3.0 | 0.00 | 0.02 | 0.01 | 81 | 1032.7 |
| 20260504070404 | 55 | 352 | 3.0 | 7.0 | 0.00 | 0.02 | 0.01 | 81 | 1032.6 |